カタログに戻る

STARLINK-34651

運用中通信SSO
NORAD 64861·PAYLOAD·🇺🇸 United States

打ち上げ Jul 19, 2025 から Vandenberg Space Force Base

Loading…

次のパス (今後24時間)

TLE

最新Source: CelesTrak SupGP

元期: Sep 15, 2026, 03:02 UTC

1 64861C 25152V   26258.12687500 -.00053679  00000+0 -16657-2 0  2588
2 64861  97.2847 108.7099 0001665  92.1062 343.3418 15.33477182    14

AllMySatでSTARLINK-34651をリアルタイム追跡

Download on the App Store